Regional Weather Roundup
Issued by NWS

Home | Current Version | Previous Version | Text Only | Print | Product List | Glossary Off
Versions: 1 2 3 4 5 6 7 8 9 10 11 12 13 14 15 16 17 18 19 20 21 22 23 24 25 26 27 28 29 30 31 32 33 34 35 36 37 38 39 40 41 42 43 44 45 46 47 48 49 50

000
ASUS43 KLMK 020502
RWRKY
KENTUCKY REGIONAL WEATHER ROUNDUP
NATIONAL WEATHER SERVICE LOUISVILLE KY
100 AM EDT SAT AUG 02 2014

NOTE "FAIR" INDICATES FEW OR NO CLOUDS BELOW 12,000 FEET
WITH NO SIGNIFICANT WEATHER AND/OR OBSTRUCTIONS TO VISIBILITY.

KYZ001>023-026-027-061>063-070>075-020600-
WESTERN AND SOUTH CENTRAL KENTUCKY

CITY           SKY/WX    TMP DP  RH WIND       PRES   REMARKS
PADUCAH        PTCLDY    72  65  78 CALM      30.05S
HENDERSON      MOCLDY   N/A N/A N/A MISG        N/A
OWENSBORO      MOCLDY    73  61  66 N6        30.06S
HOPKINSVILLE   PTCLDY    72  61  69 N1        30.05S
BOWLING GREEN  CLEAR     68  57  68 CALM      30.06R
GLASGOW        CLEAR     64  59  83 CALM      30.07S
$$

KYZ024-025-028>034-038-045-046-053-020600-
NORTH CENTRAL KENTUCKY

CITY           SKY/WX    TMP DP  RH WIND       PRES   REMARKS
LOUISVILLE/SDF PTCLDY    74  61  63 N5        30.07R
LOUISVILLE/LOU PTCLDY    72  61  68 CALM      30.08R
FORT KNOX      CLEAR     63  61  93 NW2       30.07R
$$

KYZ035>037-039>044-047>052-055>060-089>105-020600-
NORTHEAST KENTUCKY

CITY           SKY/WX    TMP DP  RH WIND       PRES   REMARKS
LEXINGTON      PTCLDY    69  61  75 CALM      30.09R
COVINGTON      PTCLDY    71  61  70 N3        30.09R
FRANKFORT      MOCLDY    65  62  90 CALM      30.07R
$$

KYZ054-064>069-076>088-106>120-020600-
SOUTHEAST KENTUCKY

CITY           SKY/WX    TMP DP  RH WIND       PRES   REMARKS
JACKSON        FOG       67  64  90 CALM      30.10S VSB 3/4
LONDON         CLOUDY    69  63  81 SE5       30.10R
SOMERSET       MOCLDY    68  66  94 CALM      30.09S
MIDDLESBORO    PTCLDY    67  64  90 CALM      30.10F
MONTICELLO     CLEAR     64  63  97 CALM      30.09S FOG
$$




USA.gov is the U.S. government's official web portal to all federal, state and local government web resources and services.